STARLINK-32797, 62843

Orbit data source: Space-Track

STARLINK-32797, 62843 is a payload satellite owned by SpaceX/Seattle (US) in LEO that was launched on Mon, 27 Jan 2025 UTC via an FALCON 9 launch vehicle from the Air Force Eastern Test Range (AFETR). Payload-class satellites include a variety of spacecraft equipped with specific instruments for various scientific and technological missions. These include communications satellites like Starlink; space stations such as the ISS; scientific satellites like the Hubble; Earth observation satellites from companies like Planet Labs, Umbra, and HawkEye 360; GPS; miniature CubeSats for education and research; and military/defense satellites.

Loading next visibility...
Identifier
62843, 2025-019Q
Orbit
LEO
Last TLE update
13 hours ago
Origin
Manufacturer
SpaceX/Seattle
Mission
Operational Commercial Communications
Bus & Motor
STARLINK V2M, Unknown motor
Mass
730 kg wet, ~700 kg dry
Launch date (UTC)
2025-01-27 (3 months ago)
Launch vehicle
FALCON 9
Launch site
Air Force Eastern Test Range (AFETR)
Object type
Payload
Rocket body
Debris
Shape & HBR
Box + 2 Pan, 29 m
Radar Cross Section
33.884 m², Large (>1 m²)

Expand to show TLE details & history

TLE from 13 hours ago
0 STARLINK-32797
1 62843U 25019Q   25128.67461813  .00001914  00000-0  79076-4 0  9992
2 62843  43.0023  11.4726 0001743 263.5536  96.5117 15.27574503 15603
Epoch: 2025-05-08T16:11Z
Definitive object data (Epoch: 2025-05-08T16:11:27.006Z)
Latitude
-0.00003°
Longitude
-98.13168°
Altitude
482.977 km
Speed
7.626 km/s
True Right ascension
00h 45m 53s
True Declination
0° 00' 00"
Sunlit
Object was in daylight at TLE epoch
Visualization TLE readout
Latitude
3.09036°
Longitude
75.4326°
Altitude
482.522 km
Speed
7.626 km/s
Apparent Right ascension
09h 54m 12s
Apparent Declination
-53° 01' 60"
Sunlit
Object is in full shadow
Visualization observer readout
Local Sidereal Time
13:39:14
Azimuth
211.157° SW
Elevation
-14.863°
Doppler factor
1
Orbital elements
Apogee altitude
486.207 km
Perigee altitude
483.814 km
Semi-major axis
6,863.147 km
Eccentricity
0.0001743
Inclination
43.0023°
RAAN
11.4726°
Arg. of periapsis
263.5536°
True anomaly
96.53154°
Mean anomaly
96.5117°
Eccentric anomaly
96.52162°
Mean motion
3.81732 °/min
BSTAR
0.000079076
Orbital period
94.31 mins
Loading maneuver chart data...
Loading SW <> Apogee altitude chart data...
Loading historical data...
Loading historical data...
Loading historical data...
Loading historical data...
Loading historical data...
Loading historical data...
Loading historical data...

STARLINK-32797 Visibility forecast

Observer location: undefined°, undefined°

Span
Click to sort rows by Start time (UTC) header in descending order
Start Az.
Max El. time (UTC)
Max El. Az.
Max El.
End time (UTC)
End Az.
6 mins2025-05-09 19:03:34.007Z213.28° SW2025-05-09 19:06:34.007Z161.102° S27.689°2025-05-09 19:09:34.007Z90.496° ESE
5 mins2025-05-09 20:43:34.007Z264.162° W2025-05-09 20:45:34.007Z324.296° NNW43.492°2025-05-09 20:48:34.007Z69.173° E
5 mins2025-05-09 22:22:34.007Z292.702° NW2025-05-09 22:24:34.007Z342.032° N37.56°2025-05-09 22:27:34.007Z76.577° E
6 mins2025-05-10 00:01:34.007Z285.053° WNW2025-05-10 00:03:34.007Z261.68° W42.487°2025-05-10 00:07:34.007Z115.206° SE
|